{"data":{"norad_id":54115,"intl_designator":"2022-138C","name":"ONEWEB-0495","alt_names":[],"object_type":"PAYLOAD","status":"ACTIVE","operator":null,"country":"UK","launch_date":"2022-10-22","launch_site_code":"SRILR","launch_vehicle":null,"mission":null,"orbit_class":"UNKNOWN","rcs_meters":null,"size_class":null,"mass_kg":null,"dimensions":null,"purposes":["comms"],"wikipedia_slug":null,"has_3d_model":false,"image_url":null,"decayed_at":null,"tle_current":{"epoch":"2026-05-25T03:57:58.209984Z","epoch_age_seconds":54648,"freshness":"FRESH","line1":"1 54115U 22138C   26145.16525706  .00000122  00000+0  27216-3 0  9997","line2":"2 54115  87.9151 309.5605 0001445  73.6920 286.4372 13.19726532173785","mean_motion":13.19726532,"eccentricity":0.0001445,"inclination_deg":87.9151,"raan_deg":309.5605,"arg_perigee_deg":73.692,"mean_anomaly_deg":286.4372,"bstar":0.00027216,"rev_number":17378,"period_min":109.11351443528,"perigee_km":1184.6717145105,"apogee_km":1186.8576821014,"semimajor_km":7563.901698306,"source":"CELESTRAK","updated_at":"2026-05-25T13:38:22.584303Z"}}}